Location: Elbart
(49.6135°N, 11.9134°E)
Time: 17:56:30
(UTC+00:00)

STARLINK-1238 - Pass Details

Date: 09 April 2020
Orbit: 548 x 551 km, 53.0° (Epoch: 02 June)

Event Time Altitude Azimuth Distance (km) Brightness Sun altitude
Rises 18:25:52 0° 293° (WNW) 2,673 10.0 -5.3°
Reaches altitude 10° 18:28:06 10° 291° (WNW) 1,780 8.1 -5.7°
Maximum altitude 18:32:06 68° 208° (SSW) 573 3.8 -6.3°
Drops below altitude 10° 18:36:06 10° 126° (SE) 1,775 5.6 -6.9°
Enters shadow 18:36:28 - 125° (SE) 1,922 5.8 -7.0°
